User: anonymous   Login
Location: Unspecified
(0.0000°N, 0.0000°E)
Time: 07:42:35
(UTC+00:00)
Language:

DICE 1 - Orbit

View from above orbital plane
View from above orbital plane
View from above satellite
View from above satellite

Ground track
Ground track

The orbit data is extracted from the following two-line orbital elements,

1 37851U 11061B   17289.87899932 +.00002283 +00000-0 +12879-3 0  9990
2 37851 101.7262 218.4582 0187936 097.0883 265.1738 15.01518171324522
Epoch (UTC): 16 October 2017 21:05:45
Eccentricity: 0.0187936
inclination: 101.7262°
perigee height: 432 km
apogee height: 692 km
right ascension of ascending node: 218.4582°
argument of perigee: 97.0883°
revolutions per day: 15.01518171
mean anomaly at epoch: 265.1738°
orbit number at epoch: 32452

The dashed part of the orbit path shows where the satellite is in the earth's shadow,  

DLR